Location: Rochester
(43.1610°N, 77.6109°W)
Time: 00:40:55
(UTC-04:00)

RS-44 - Visible Passes

Search period start: 17 October 2021 00:00
Search period end: 27 October 2021 00:00
Orbit: 1174 x 1511 km, 82.5° (Epoch: 16 October)

Date Brightness Start Highest point End Pass type
(mag) Time Alt. Az. Time Alt. Az. Time Alt. Az.
17 Oct ? 01:09:21 15° NNE 01:09:21 15° NNE 01:10:38 10° NNE visible
17 Oct ? 03:01:57 20° N 03:01:57 20° N 03:04:16 10° N visible
18 Oct ? 01:33:11 17° NNE 01:33:11 17° NNE 01:34:44 10° NNE visible
18 Oct ? 03:25:47 17° NNW 03:25:47 17° NNW 03:27:37 10° N visible
19 Oct ? 01:57:01 18° N 01:57:01 18° N 01:58:38 10° N visible
19 Oct ? 03:49:37 13° NNW 03:49:37 13° NNW 03:50:35 10° NNW visible
20 Oct ? 02:20:51 17° N 02:20:51 17° N 02:22:20 10° N visible
21 Oct ? 00:52:03 12° NNE 00:52:03 12° NNE 00:52:26 10° NNE visible
21 Oct ? 02:44:39 15° N 02:44:39 15° N 02:45:51 10° N visible
22 Oct ? 01:15:51 13° NNE 01:15:51 13° NNE 01:16:28 10° NNE visible
22 Oct ? 03:08:27 12° NNW 03:08:27 12° NNW 03:09:06 10° NNW visible
23 Oct ? 01:39:38 13° N 01:39:38 13° N 01:40:18 10° N visible
24 Oct ? 02:03:25 12° N 02:03:25 12° N 02:03:57 10° N visible
25 Oct ? 02:27:11 11° N 02:27:11 11° N 02:27:25 10° N visible
